Location: Newark
(44.3681°N, 100.3364°W)
Time: 13:52:04
(UTC+00:00)

Explorer 7 - Pass Details

Date: 26 February 2020
Orbit: 485 x 679 km, 50.3° (Epoch: 05 April)

Event Time Altitude Azimuth Distance (km) Brightness Sun altitude
Rises 16:30:12 0° 217° (SW) 3,009 10.7 27.7°
Reaches altitude 10° 16:32:41 10° 210° (SSW) 2,084 10.1 28.0°
Maximum altitude 16:37:12 41° 141° (SE) 949 10.3 28.5°
Drops below altitude 10° 16:41:33 10° 72° (ENE) 2,009 10.0 29.0°
Sets 16:43:54 0° 65° (ENE) 2,886 10.6 29.3°
